^^
Your Local Weather - Clay, NY Station Historical Data
Daily Summary for April 5, 2017 Units:  Metric    English   Both
« Previous Day
Next Day »
Daily Weekly Monthly Yearly Custom
  High: Low: Average:
Temperature: 9.2 °C 4.4 °C 6.5 °C
Dew Point: 4.9 °C 1.6 °C 2.4 °C
Humidity: 83% 67% 76%
Wind Speed: 11.3km/h 0km/h 5.1km/h
Wind Gust: 19.3km/h - -
Wind- - SSW
Pressure: 1014.4 hPa 1003.9 hPa -
Precipitation: 0 mm    
Historical Graphs
 
 
Tabular Data for April 5, 2017
Time Temperature Dew Point Pressure Wind Wind Speed Wind Gust Humidity Rainfall Rate (Hourly) solar
00:00 9.2 °C 4.8 °C 1003.9 hPa WNW 4.8 km/h 4.8 km/h 74% 0 mm 0 W/m2
00:06 9.1 °C 4.8 °C 1004.3 hPa NW 4.8 km/h 6.4 km/h 75% 0 mm 0 W/m2
00:12 8.9 °C 4.7 °C 1004.3 hPa SW 4.8 km/h 8 km/h 75% 0 mm 0 W/m2
00:18 8.8 °C 4.8 °C 1004.3 hPa West 6.4 km/h 8 km/h 76% 0 mm 0 W/m2
00:24 8.6 °C 4.8 °C 1004.6 hPa WNW 4.8 km/h 6.4 km/h 77% 0 mm 0 W/m2
00:30 8.6 °C 4.8 °C 1004.6 hPa WNW 4.8 km/h 4.8 km/h 77% 0 mm 0 W/m2
00:36 8.6 °C 4.8 °C 1004.6 hPa SW 3.2 km/h 4.8 km/h 77% 0 mm 0 W/m2
00:42 8.5 °C 4.9 °C 1004.6 hPa West 1.6 km/h 1.6 km/h 78% 0 mm 0 W/m2
00:48 8.5 °C 4.7 °C 1004.6 hPa WSW 1.6 km/h 6.4 km/h 77% 0 mm 0 W/m2
00:54 8.4 °C 4.7 °C 1004.6 hPa WNW 3.2 km/h 4.8 km/h 77% 0 mm 0 W/m2
01:00 8.5 °C 4.5 °C 1004.6 hPa West 4.8 km/h 6.4 km/h 76% 0 mm 0 W/m2
01:06 8.5 °C 4.3 °C 1005 hPa WSW 4.8 km/h 9.7 km/h 75% 0 mm 0 W/m2
01:12 8.5 °C 4.3 °C 1005 hPa WSW 4.8 km/h 12.9 km/h 75% 0 mm 0 W/m2
01:18 8.5 °C 3.7 °C 1005 hPa West 8 km/h 12.9 km/h 72% 0 mm 0 W/m2
01:24 8.4 °C 3.6 °C 1005 hPa WSW 9.7 km/h 9.7 km/h 72% 0 mm 0 W/m2
01:30 8.3 °C 3.6 °C 1005 hPa SW 8 km/h 12.9 km/h 72% 0 mm 0 W/m2
01:36 8.2 °C 3.4 °C 1005.3 hPa West 6.4 km/h 12.9 km/h 72% 0 mm 0 W/m2
01:42 8.1 °C 3.4 °C 1005.3 hPa SW 8 km/h 12.9 km/h 72% 0 mm 0 W/m2
01:48 7.9 °C 3.2 °C 1005.6 hPa WSW 11.3 km/h 19.3 km/h 72% 0 mm 0 W/m2
01:54 7.8 °C 3.2 °C 1005.6 hPa WSW 11.3 km/h 11.3 km/h 73% 0 mm 0 W/m2
02:00 7.6 °C 3.1 °C 1006 hPa West 8 km/h 14.5 km/h 73% 0 mm 0 W/m2
02:12 7.4 °C 3.1 °C 1006 hPa WNW 4.8 km/h 4.8 km/h 74% 0 mm 0 W/m2
02:18 7.4 °C 3.1 °C 1006 hPa SW 4.8 km/h 9.7 km/h 74% 0 mm 0 W/m2
02:24 7.3 °C 3 °C 1006 hPa West 6.4 km/h 8 km/h 74% 0 mm 0 W/m2
02:30 7.3 °C 3.1 °C 1006.3 hPa WSW 4.8 km/h 4.8 km/h 75% 0 mm 0 W/m2
02:36 7.2 °C 2.9 °C 1006.3 hPa West 6.4 km/h 11.3 km/h 74% 0 mm 0 W/m2
02:42 7.2 °C 3.1 °C 1006.3 hPa WSW 8 km/h 8 km/h 75% 0 mm 0 W/m2
02:48 7.1 °C 3 °C 1006.3 hPa WSW 4.8 km/h 12.9 km/h 75% 0 mm 0 W/m2
02:54 7.1 °C 2.8 °C 1006.3 hPa SW 6.4 km/h 8 km/h 74% 0 mm 0 W/m2
03:00 7.1 °C 2.7 °C 1006.7 hPa West 8 km/h 14.5 km/h 74% 0 mm 0 W/m2
03:06 7.1 °C 2.7 °C 1006.7 hPa WNW 8 km/h 14.5 km/h 74% 0 mm 0 W/m2
03:12 7.1 °C 2.7 °C 1006.7 hPa West 8 km/h 8 km/h 74% 0 mm 0 W/m2
03:18 7 °C 2.7 °C 1006.7 hPa West 6.4 km/h 8 km/h 74% 0 mm 0 W/m2
03:24 6.9 °C 2.6 °C 1006.7 hPa SW 4.8 km/h 8 km/h 74% 0 mm 0 W/m2
03:30 6.9 °C 2.8 °C 1006.7 hPa West 4.8 km/h 4.8 km/h 75% 0 mm 0 W/m2
03:36 6.9 °C 2.6 °C 1006.7 hPa WNW 3.2 km/h 8 km/h 74% 0 mm 0 W/m2
03:42 6.9 °C 2.6 °C 1006.7 hPa West 6.4 km/h 11.3 km/h 74% 0 mm 0 W/m2
03:48 6.9 °C 2.6 °C 1007 hPa WSW 6.4 km/h 11.3 km/h 74% 0 mm 0 W/m2
03:54 6.9 °C 2.8 °C 1007 hPa West 6.4 km/h 9.7 km/h 75% 0 mm 0 W/m2
04:00 6.8 °C 2.5 °C 1006.7 hPa WNW 6.4 km/h 9.7 km/h 74% 0 mm 0 W/m2
04:06 6.8 °C 2.7 °C 1007 hPa WSW 6.4 km/h 9.7 km/h 75% 0 mm 0 W/m2
04:12 6.8 °C 2.7 °C 1007 hPa West 6.4 km/h 6.4 km/h 75% 0 mm 0 W/m2
04:18 6.7 °C 2.6 °C 1007 hPa WNW 6.4 km/h 6.4 km/h 75% 0 mm 0 W/m2
04:24 6.7 °C 2.6 °C 1007 hPa West 4.8 km/h 6.4 km/h 75% 0 mm 0 W/m2
04:30 6.7 °C 2.7 °C 1007.3 hPa WNW 3.2 km/h 4.8 km/h 76% 0 mm 0 W/m2
04:36 6.7 °C 2.6 °C 1007.3 hPa West 4.8 km/h 9.7 km/h 75% 0 mm 0 W/m2
04:42 6.6 °C 2.7 °C 1007.3 hPa WNW 4.8 km/h 4.8 km/h 76% 0 mm 0 W/m2
04:48 6.5 °C 2.6 °C 1007.3 hPa West 4.8 km/h 9.7 km/h 76% 0 mm 0 W/m2
04:54 6.4 °C 2.7 °C 1007.7 hPa WNW 4.8 km/h 8 km/h 77% 0 mm 0 W/m2
05:00 6.3 °C 2.8 °C 1008 hPa West 4.8 km/h 11.3 km/h 78% 0 mm 0 W/m2
05:06 6.2 °C 2.8 °C 1008 hPa WNW 8 km/h 11.3 km/h 79% 0 mm 0 W/m2
05:12 6.1 °C 2.7 °C 1008.4 hPa WNW 6.4 km/h 8 km/h 79% 0 mm 0 W/m2
05:18 5.9 °C 2.9 °C 1008.7 hPa WNW 6.4 km/h 8 km/h 81% 0 mm 0 W/m2
05:24 5.9 °C 2.9 °C 1009 hPa WNW 4.8 km/h 8 km/h 81% 0 mm 0 W/m2
05:30 5.9 °C 2.9 °C 1009 hPa WNW 4.8 km/h 4.8 km/h 81% 0 mm 0 W/m2
05:36 5.9 °C 2.9 °C 1009 hPa WNW 6.4 km/h 6.4 km/h 81% 0 mm 0 W/m2
05:42 5.9 °C 2.9 °C 1009.4 hPa WSW 4.8 km/h 6.4 km/h 81% 0 mm 0 W/m2
05:48 5.9 °C 2.8 °C 1009.7 hPa NW 3.2 km/h 6.4 km/h 80% 0 mm 0 W/m2
05:54 5.9 °C 2.6 °C 1009.7 hPa WNW 4.8 km/h 8 km/h 79% 0 mm 0 W/m2
06:00 6 °C 2.4 °C 1009.7 hPa NW 8 km/h 8 km/h 78% 0 mm 0 W/m2
06:06 5.9 °C 2.3 °C 1010 hPa WNW 8 km/h 17.7 km/h 78% 0 mm 0 W/m2
06:12 5.7 °C 2.3 °C 1010.4 hPa WNW 6.4 km/h 12.9 km/h 79% 0 mm 0 W/m2
06:18 5.4 °C 2.2 °C 1010 hPa WNW 6.4 km/h 12.9 km/h 80% 0 mm 0 W/m2
06:24 5.3 °C 2.1 °C 1010.4 hPa NW 8 km/h 14.5 km/h 80% 0 mm 0 W/m2
06:30 5.1 °C 1.9 °C 1010.4 hPa NNW 6.4 km/h 12.9 km/h 80% 0 mm 0 W/m2
06:36 5 °C 2 °C 1010.7 hPa WNW 8 km/h 12.9 km/h 81% 0 mm 0 W/m2
06:42 4.9 °C 1.9 °C 1010.4 hPa WNW 9.7 km/h 11.3 km/h 81% 0 mm 0 W/m2
06:48 4.8 °C 1.8 °C 1010.7 hPa WNW 8 km/h 11.3 km/h 81% 0 mm 0 W/m2
06:54 4.8 °C 1.9 °C 1010.7 hPa West 8 km/h 9.7 km/h 82% 0 mm 0 W/m2
07:00 4.8 °C 1.9 °C 1010.7 hPa West 8 km/h 14.5 km/h 82% 0 mm 0 W/m2
07:06 4.7 °C 1.7 °C 1011.1 hPa WNW 8 km/h 14.5 km/h 81% 0 mm 7 W/m2
07:12 4.7 °C 1.7 °C 1011.4 hPa NW 8 km/h 11.3 km/h 81% 0 mm 7 W/m2
07:18 4.7 °C 1.8 °C 1011.4 hPa NW 8 km/h 11.3 km/h 82% 0 mm 9 W/m2
07:24 4.6 °C 1.8 °C 1011.7 hPa West 6.4 km/h 8 km/h 82% 0 mm 11 W/m2
07:30 4.6 °C 1.8 °C 1011.7 hPa WNW 6.4 km/h 9.7 km/h 82% 0 mm 12 W/m2
07:36 4.6 °C 1.7 °C 1012.1 hPa West 8 km/h 14.5 km/h 82% 0 mm 14 W/m2
07:42 4.6 °C 1.7 °C 1012.4 hPa WNW 8 km/h 8 km/h 82% 0 mm 14 W/m2
07:48 4.6 °C 1.7 °C 1012.4 hPa WNW 6.4 km/h 11.3 km/h 82% 0 mm 19 W/m2
07:54 4.6 °C 1.7 °C 1012.4 hPa NW 6.4 km/h 11.3 km/h 82% 0 mm 19 W/m2
08:00 4.6 °C 1.7 °C 1012.4 hPa WNW 6.4 km/h 9.7 km/h 82% 0 mm 19 W/m2
08:06 4.6 °C 1.7 °C 1012.8 hPa WNW 6.4 km/h 9.7 km/h 82% 0 mm 25 W/m2
08:12 4.5 °C 1.7 °C 1012.8 hPa WNW 8 km/h 8 km/h 82% 0 mm 30 W/m2
08:18 4.4 °C 1.8 °C 1013.1 hPa West 8 km/h 9.7 km/h 83% 0 mm 30 W/m2
08:24 4.4 °C 1.8 °C 1013.1 hPa NW 8 km/h 12.9 km/h 83% 0 mm 32 W/m2
08:30 4.4 °C 1.8 °C 1013.1 hPa WNW 8 km/h 8 km/h 83% 0 mm 35 W/m2
08:36 4.4 °C 1.8 °C 1013.1 hPa WNW 6.4 km/h 11.3 km/h 83% 0 mm 35 W/m2
08:42 4.5 °C 1.9 °C 1013.1 hPa WNW 6.4 km/h 6.4 km/h 83% 0 mm 40 W/m2
08:48 4.5 °C 1.9 °C 1013.1 hPa WNW 4.8 km/h 8 km/h 83% 0 mm 47 W/m2
08:54 4.5 °C 1.7 °C 1013.1 hPa WNW 6.4 km/h 11.3 km/h 82% 0 mm 54 W/m2
09:00 4.5 °C 1.7 °C 1013.4 hPa WNW 6.4 km/h 8 km/h 82% 0 mm 58 W/m2
09:06 4.6 °C 1.7 °C 1013.1 hPa WNW 6.4 km/h 8 km/h 82% 0 mm 62 W/m2
09:12 4.6 °C 1.8 °C 1013.1 hPa West 4.8 km/h 6.4 km/h 82% 0 mm 70 W/m2
09:18 4.7 °C 1.8 °C 1013.1 hPa West 6.4 km/h 9.7 km/h 82% 0 mm 69 W/m2
09:24 4.7 °C 1.7 °C 1013.4 hPa WNW 4.8 km/h 8 km/h 81% 0 mm 69 W/m2
09:30 4.7 °C 1.7 °C 1013.1 hPa West 6.4 km/h 8 km/h 81% 0 mm 81 W/m2
09:36 4.7 °C 1.7 °C 1013.1 hPa WNW 6.4 km/h 8 km/h 81% 0 mm 84 W/m2
09:48 4.8 °C 1.7 °C 1013.4 hPa WNW 4.8 km/h 9.7 km/h 80% 0 mm 104 W/m2
09:54 4.8 °C 1.7 °C 1013.4 hPa West 6.4 km/h 6.4 km/h 80% 0 mm 111 W/m2
10:00 4.9 °C 1.8 °C 1013.4 hPa WSW 4.8 km/h 4.8 km/h 80% 0 mm 123 W/m2
10:12 5.1 °C 1.7 °C 1013.4 hPa WSW 4.8 km/h 8 km/h 79% 0 mm 155 W/m2
10:18 5.1 °C 1.6 °C 1013.4 hPa NW 6.4 km/h 11.3 km/h 78% 0 mm 146 W/m2
10:24 5.2 °C 1.7 °C 1013.4 hPa West 6.4 km/h 6.4 km/h 78% 0 mm 144 W/m2
10:30 5.3 °C 1.8 °C 1013.4 hPa NW 4.8 km/h 8 km/h 78% 0 mm 146 W/m2
10:36 5.3 °C 1.8 °C 1013.8 hPa West 6.4 km/h 8 km/h 78% 0 mm 160 W/m2
10:42 5.4 °C 1.9 °C 1013.8 hPa West 6.4 km/h 6.4 km/h 78% 0 mm 151 W/m2
10:48 5.5 °C 1.9 °C 1014.1 hPa WSW 4.8 km/h 6.4 km/h 78% 0 mm 151 W/m2
10:54 5.6 °C 1.8 °C 1014.1 hPa NW 4.8 km/h 12.9 km/h 77% 0 mm 216 W/m2
11:00 5.6 °C 1.9 °C 1014.1 hPa WNW 6.4 km/h 11.3 km/h 77% 0 mm 190 W/m2
11:06 5.6 °C 1.9 °C 1014.1 hPa WNW 6.4 km/h 11.3 km/h 77% 0 mm 192 W/m2
11:12 5.8 °C 1.9 °C 1014.1 hPa WSW 4.8 km/h 8 km/h 76% 0 mm 214 W/m2
11:18 5.8 °C 1.9 °C 1014.1 hPa WNW 6.4 km/h 8 km/h 76% 0 mm 193 W/m2
11:24 5.9 °C 2.2 °C 1014.1 hPa WNW 4.8 km/h 6.4 km/h 77% 0 mm 243 W/m2
11:30 6.2 °C 2.4 °C 1014.1 hPa West 3.2 km/h 3.2 km/h 77% 0 mm 258 W/m2
11:36 6.2 °C 2.2 °C 1014.1 hPa WNW 3.2 km/h 4.8 km/h 76% 0 mm 204 W/m2
11:42 6.3 °C 2.3 °C 1014.1 hPa WNW 3.2 km/h 4.8 km/h 76% 0 mm 225 W/m2
11:48 6.3 °C 2.1 °C 1014.1 hPa WNW 3.2 km/h 6.4 km/h 74% 0 mm 190 W/m2
11:54 6.3 °C 2 °C 1014.4 hPa WNW 3.2 km/h 6.4 km/h 74% 0 mm 207 W/m2
12:00 6.4 °C 2.1 °C 1014.4 hPa West 3.2 km/h 3.2 km/h 74% 0 mm 202 W/m2
12:06 6.4 °C 1.9 °C 1014.4 hPa WNW 3.2 km/h 3.2 km/h 73% 0 mm 211 W/m2
12:12 6.4 °C 2.2 °C 1014.4 hPa WSW 3.2 km/h 4.8 km/h 74% 0 mm 195 W/m2
12:18 6.4 °C 1.8 °C 1014.4 hPa West 3.2 km/h 8 km/h 72% 0 mm 188 W/m2
12:24 6.4 °C 1.9 °C 1014.4 hPa SW 4.8 km/h 9.7 km/h 73% 0 mm 206 W/m2
12:30 6.4 °C 1.9 °C 1014.1 hPa SW 3.2 km/h 9.7 km/h 73% 0 mm 271 W/m2
12:36 6.6 °C 2.1 °C 1014.1 hPa West 3.2 km/h 11.3 km/h 73% 0 mm 253 W/m2
12:42 6.7 °C 2.2 °C 1014.4 hPa West 4.8 km/h 8 km/h 73% 0 mm 253 W/m2
12:48 6.7 °C 2.2 °C 1014.1 hPa West 4.8 km/h 8 km/h 73% 0 mm 250 W/m2
12:54 6.7 °C 2 °C 1014.1 hPa WSW 4.8 km/h 4.8 km/h 72% 0 mm 278 W/m2
13:00 6.8 °C 1.9 °C 1014.1 hPa WSW 4.8 km/h 4.8 km/h 71% 0 mm 260 W/m2
13:06 6.9 °C 2.2 °C 1014.1 hPa WSW 4.8 km/h 8 km/h 72% 0 mm 292 W/m2
13:12 7.1 °C 2.3 °C 1014.1 hPa SW 3.2 km/h 4.8 km/h 72% 0 mm 237 W/m2
13:18 6.9 °C 2.2 °C 1014.4 hPa West 4.8 km/h 4.8 km/h 72% 0 mm 250 W/m2
13:24 6.9 °C 2.1 °C 1014.4 hPa WSW 3.2 km/h 4.8 km/h 71% 0 mm 251 W/m2
13:30 7 °C 2.1 °C 1014.4 hPa SW 3.2 km/h 3.2 km/h 71% 0 mm 258 W/m2
13:36 7.1 °C 2.3 °C 1014.4 hPa SW 4.8 km/h 6.4 km/h 72% 0 mm 253 W/m2
13:42 7.1 °C 2.2 °C 1014.4 hPa SW 1.6 km/h 3.2 km/h 71% 0 mm 264 W/m2
13:48 7.3 °C 2.4 °C 1014.1 hPa WNW 1.6 km/h 8 km/h 71% 0 mm 272 W/m2
13:54 7.3 °C 2.4 °C 1014.1 hPa SW 3.2 km/h 8 km/h 71% 0 mm 309 W/m2
14:00 7.5 °C 2.4 °C 1014.1 hPa WSW 1.6 km/h 1.6 km/h 70% 0 mm 320 W/m2
14:06 7.6 °C 2.7 °C 1013.8 hPa Calm   3.2 km/h 71% 0 mm 308 W/m2
14:12 7.7 °C 2.3 °C 1013.8 hPa West 1.6 km/h 1.6 km/h 69% 0 mm 278 W/m2
14:18 7.6 °C 2.2 °C 1013.4 hPa WSW 1.6 km/h 4.8 km/h 69% 0 mm 299 W/m2
14:24 7.4 °C 2.3 °C 1013.4 hPa WSW 1.6 km/h 1.6 km/h 70% 0 mm 294 W/m2
14:30 7.5 °C 2.4 °C 1013.4 hPa SW 1.6 km/h 3.2 km/h 70% 0 mm 276 W/m2
14:36 7.6 °C 2.7 °C 1013.4 hPa WSW 1.6 km/h 3.2 km/h 71% 0 mm 264 W/m2
14:42 7.8 °C 2.2 °C 1013.4 hPa NNW 1.6 km/h 4.8 km/h 68% 0 mm 246 W/m2
14:48 7.8 °C 2.3 °C 1013.1 hPa North 4.8 km/h 4.8 km/h 68% 0 mm 260 W/m2
14:54 7.8 °C 2.3 °C 1013.1 hPa North 3.2 km/h 4.8 km/h 68% 0 mm 274 W/m2
15:00 7.7 °C 2.2 °C 1013.1 hPa North 3.2 km/h 4.8 km/h 68% 0 mm 295 W/m2
15:06 7.7 °C 1.9 °C 1012.8 hPa NNE 3.2 km/h 4.8 km/h 67% 0 mm 287 W/m2
15:12 7.7 °C 2.4 °C 1012.8 hPa ENE 1.6 km/h 3.2 km/h 69% 0 mm 279 W/m2
15:19 8 °C 2.4 °C 1013.1 hPa ENE 1.6 km/h 4.8 km/h 68% 0 mm 258 W/m2
15:24 8.1 °C 2.8 °C 1013.1 hPa ENE 3.2 km/h 3.2 km/h 69% 0 mm 250 W/m2
15:30 8.2 °C 2.4 °C 1013.1 hPa ESE 1.6 km/h 1.6 km/h 67% 0 mm 218 W/m2
15:36 8.2 °C 2.6 °C 1013.1 hPa ESE 1.6 km/h 3.2 km/h 68% 0 mm 229 W/m2
15:42 8.2 °C 2.6 °C 1013.1 hPa South 1.6 km/h 3.2 km/h 68% 0 mm 230 W/m2
15:48 8.2 °C 2.4 °C 1013.1 hPa South 1.6 km/h 3.2 km/h 67% 0 mm 207 W/m2
15:54 8.3 °C 2.6 °C 1013.1 hPa Calm     67% 0 mm 190 W/m2
16:00 8.4 °C 2.7 °C 1013.1 hPa Calm   1.6 km/h 67% 0 mm 155 W/m2
16:06 8.3 °C 2.6 °C 1013.4 hPa South 1.6 km/h 3.2 km/h 67% 0 mm 148 W/m2
16:12 8.2 °C 2.4 °C 1013.1 hPa SE 1.6 km/h 3.2 km/h 67% 0 mm 158 W/m2
16:18 8.2 °C 2.6 °C 1013.4 hPa SE 1.6 km/h 3.2 km/h 68% 0 mm 158 W/m2
16:24 8.3 °C 2.7 °C 1013.4 hPa SE 1.6 km/h 3.2 km/h 68% 0 mm 149 W/m2
16:30 8.2 °C 2.4 °C 1013.1 hPa SE 1.6 km/h 1.6 km/h 67% 0 mm 158 W/m2
16:36 8.3 °C 2.7 °C 1013.1 hPa East 3.2 km/h 3.2 km/h 68% 0 mm 171 W/m2
16:42 8.2 °C 2.8 °C 1013.1 hPa SE 3.2 km/h 8 km/h 69% 0 mm 127 W/m2
16:48 8.1 °C 2.7 °C 1012.8 hPa East 4.8 km/h 8 km/h 69% 0 mm 102 W/m2
16:54 8 °C 2.4 °C 1013.1 hPa East 3.2 km/h 4.8 km/h 68% 0 mm 128 W/m2
17:00 7.9 °C 2.4 °C 1013.1 hPa ESE 3.2 km/h 4.8 km/h 68% 0 mm 142 W/m2
17:06 7.9 °C 2.4 °C 1013.1 hPa East 3.2 km/h 4.8 km/h 68% 0 mm 151 W/m2
17:12 8 °C 2.4 °C 1013.1 hPa ENE 1.6 km/h 3.2 km/h 68% 0 mm 123 W/m2
17:18 8 °C 2.7 °C 1013.1 hPa ENE 3.2 km/h 8 km/h 69% 0 mm 81 W/m2
17:24 7.9 °C 2.6 °C 1013.1 hPa NE 3.2 km/h 3.2 km/h 69% 0 mm 72 W/m2
17:30 7.8 °C 2.5 °C 1013.1 hPa East 4.8 km/h 9.7 km/h 69% 0 mm 134 W/m2
17:36 7.8 °C 2.4 °C 1013.4 hPa ENE 4.8 km/h 9.7 km/h 69% 0 mm 111 W/m2
17:42 7.8 °C 2.7 °C 1013.1 hPa ENE 3.2 km/h 6.4 km/h 70% 0 mm 98 W/m2
17:48 7.8 °C 2.5 °C 1013.4 hPa East 3.2 km/h 6.4 km/h 69% 0 mm 90 W/m2
17:54 7.7 °C 2.4 °C 1013.4 hPa SSE 4.8 km/h 12.9 km/h 69% 0 mm 76 W/m2
18:00 7.6 °C 2.3 °C 1013.4 hPa East 4.8 km/h 9.7 km/h 69% 0 mm 72 W/m2
18:06 7.6 °C 2.4 °C 1013.1 hPa ENE 6.4 km/h 9.7 km/h 70% 0 mm 58 W/m2
18:12 7.4 °C 2.3 °C 1013.1 hPa NE 8 km/h 9.7 km/h 70% 0 mm 58 W/m2
18:18 7.4 °C 2.4 °C 1013.1 hPa ENE 8 km/h 12.9 km/h 71% 0 mm 69 W/m2
18:24 7.4 °C 2.4 °C 1013.1 hPa East 6.4 km/h 8 km/h 71% 0 mm 49 W/m2
18:30 7.4 °C 2.3 °C 1013.1 hPa NNE 4.8 km/h 4.8 km/h 70% 0 mm 53 W/m2
18:36 7.3 °C 2.4 °C 1013.1 hPa NE 6.4 km/h 8 km/h 71% 0 mm 56 W/m2
18:42 7.3 °C 2.4 °C 1013.1 hPa NE 6.4 km/h 9.7 km/h 71% 0 mm 44 W/m2
18:48 7.3 °C 2.4 °C 1013.1 hPa ENE 4.8 km/h 9.7 km/h 71% 0 mm 23 W/m2
18:54 7.2 °C 2.3 °C 1013.1 hPa ENE 4.8 km/h 6.4 km/h 71% 0 mm 16 W/m2
19:00 7.2 °C 2.3 °C 1012.8 hPa ENE 4.8 km/h 4.8 km/h 71% 0 mm 14 W/m2
19:06 7.1 °C 2.3 °C 1012.4 hPa East 6.4 km/h 8 km/h 72% 0 mm 21 W/m2
19:12 6.9 °C 2.4 °C 1012.4 hPa ENE 4.8 km/h 4.8 km/h 73% 0 mm 19 W/m2
19:18 6.7 °C 2.2 °C 1012.4 hPa NNE 4.8 km/h 9.7 km/h 73% 0 mm 16 W/m2
19:24 6.6 °C 2.1 °C 1012.4 hPa East 6.4 km/h 9.7 km/h 73% 0 mm 11 W/m2
19:30 6.5 °C 2.2 °C 1012.1 hPa NE 6.4 km/h 6.4 km/h 74% 0 mm 5 W/m2
19:36 6.4 °C 2.3 °C 1012.1 hPa ENE 6.4 km/h 8 km/h 75% 0 mm 0 W/m2
19:42 6.3 °C 2.2 °C 1011.7 hPa East 6.4 km/h 8 km/h 75% 0 mm 0 W/m2
19:48 6.3 °C 2.3 °C 1011.7 hPa ENE 6.4 km/h 8 km/h 76% 0 mm 0 W/m2
19:54 6.2 °C 2.3 °C 1012.1 hPa East 4.8 km/h 6.4 km/h 76% 0 mm 0 W/m2
20:06 6.2 °C 2.4 °C 1012.1 hPa East 8 km/h 9.7 km/h 77% 0 mm 0 W/m2
20:12 6.2 °C 2.4 °C 1011.7 hPa ENE 6.4 km/h 11.3 km/h 77% 0 mm 0 W/m2
20:18 6.1 °C 2.3 °C 1011.4 hPa ENE 6.4 km/h 12.9 km/h 77% 0 mm 0 W/m2
20:24 6 °C 2.3 °C 1011.4 hPa ESE 6.4 km/h 8 km/h 77% 0 mm 0 W/m2
20:30 5.9 °C 2.2 °C 1011.4 hPa East 6.4 km/h 6.4 km/h 77% 0 mm 0 W/m2
20:36 5.9 °C 2.2 °C 1011.4 hPa NE 6.4 km/h 11.3 km/h 77% 0 mm 0 W/m2
20:42 5.8 °C 2.1 °C 1011.4 hPa ESE 6.4 km/h 6.4 km/h 77% 0 mm 0 W/m2
20:48 5.8 °C 2.2 °C 1011.4 hPa NNE 4.8 km/h 11.3 km/h 78% 0 mm 0 W/m2
20:54 5.8 °C 2.1 °C 1011.4 hPa ENE 6.4 km/h 6.4 km/h 77% 0 mm 0 W/m2
21:00 5.7 °C 2.2 °C 1011.4 hPa ENE 4.8 km/h 12.9 km/h 78% 0 mm 0 W/m2
21:06 5.7 °C 2.1 °C 1011.4 hPa East 4.8 km/h 12.9 km/h 78% 0 mm 0 W/m2
21:12 5.6 °C 2.1 °C 1011.4 hPa East 4.8 km/h 8 km/h 78% 0 mm 0 W/m2
21:18 5.6 °C 2.2 °C 1011.4 hPa NE 4.8 km/h 8 km/h 79% 0 mm 0 W/m2
21:24 5.5 °C 2.2 °C 1011.4 hPa ENE 4.8 km/h 4.8 km/h 79% 0 mm 0 W/m2
21:30 5.4 °C 2.3 °C 1011.7 hPa East 4.8 km/h 4.8 km/h 80% 0 mm 0 W/m2
21:36 5.4 °C 2.2 °C 1011.4 hPa NNE 3.2 km/h 4.8 km/h 80% 0 mm 0 W/m2
21:42 5.4 °C 2.2 °C 1011.4 hPa East 3.2 km/h 8 km/h 80% 0 mm 0 W/m2
21:48 5.4 °C 2.4 °C 1011.4 hPa ENE 3.2 km/h 8 km/h 81% 0 mm 0 W/m2
21:54 5.3 °C 2.3 °C 1011.4 hPa NE 3.2 km/h 3.2 km/h 81% 0 mm 0 W/m2
22:00 5.3 °C 2.3 °C 1011.4 hPa ENE 1.6 km/h 1.6 km/h 81% 0 mm 0 W/m2
22:06 5.2 °C 2.2 °C 1011.4 hPa East 3.2 km/h 4.8 km/h 81% 0 mm 0 W/m2
22:12 5.4 °C 2.4 °C 1011.1 hPa ENE 6.4 km/h 14.5 km/h 81% 0 mm 0 W/m2
22:18 5.4 °C 2.4 °C 1011.1 hPa East 6.4 km/h 14.5 km/h 81% 0 mm 0 W/m2
22:24 5.4 °C 2.4 °C 1011.1 hPa ENE 4.8 km/h 6.4 km/h 81% 0 mm 0 W/m2
22:30 5.4 °C 2.4 °C 1011.1 hPa East 4.8 km/h 4.8 km/h 81% 0 mm 0 W/m2
22:36 5.4 °C 2.4 °C 1011.1 hPa East 4.8 km/h 6.4 km/h 81% 0 mm 0 W/m2
22:42 5.5 °C 2.5 °C 1010.7 hPa East 4.8 km/h 6.4 km/h 81% 0 mm 0 W/m2
22:48 5.6 °C 2.6 °C 1010.7 hPa East 6.4 km/h 11.3 km/h 81% 0 mm 0 W/m2
22:54 5.6 °C 2.6 °C 1010.7 hPa East 8 km/h 17.7 km/h 81% 0 mm 0 W/m2
23:00 5.4 °C 2.4 °C 1010.7 hPa ESE 8 km/h 8 km/h 81% 0 mm 0 W/m2
23:06 5.4 °C 2.6 °C 1010.4 hPa ESE 6.4 km/h 8 km/h 82% 0 mm 0 W/m2
23:12 5.4 °C 2.6 °C 1010.4 hPa East 6.4 km/h 9.7 km/h 82% 0 mm 0 W/m2
23:18 5.4 °C 2.6 °C 1010.4 hPa ESE 8 km/h 11.3 km/h 82% 0 mm 0 W/m2
23:24 5.4 °C 2.6 °C 1010 hPa ESE 9.7 km/h 9.7 km/h 82% 0 mm 0 W/m2
23:30 5.4 °C 2.6 °C 1010.4 hPa East 9.7 km/h 9.7 km/h 82% 0 mm 0 W/m2
23:36 5.3 °C 2.5 °C 1010 hPa ENE 6.4 km/h 11.3 km/h 82% 0 mm 0 W/m2
23:42 5.3 °C 2.6 °C 1010 hPa East 6.4 km/h 6.4 km/h 83% 0 mm 0 W/m2
23:48 5.2 °C 2.5 °C 1010 hPa ENE 6.4 km/h 6.4 km/h 83% 0 mm 0 W/m2
23:56 5.1 °C 2.4 °C 1010 hPa SE 6.4 km/h 12.9 km/h 83% 0 mm 0 W/m2
Country Meadow, Clay, NY, USA
Compliments of Weather Underground - 2 mb